Wind_Speed
44 44 44 43 43 44 43 43 43 44 43 44 45 46 46 46 45 44 44 44 45 45 46 46 45 45 45 45 45 45 45 45 45 45 45 45 45 45
44 44 45 45 45 45 45 45 45 45 44 45 46 46 46 46 46 46 45 45 45 46 46 46 46 46 46 46 46 46 46 47 47 47 46 46 45 45
46 46 45 45 46 46 46 47 47 47 46 45 46 46 46 45 46 46 46 46 46 46 46 46 46 46 47 47 47 47 47 47 47 47 47 46 46 46
46 46 46 45 46 47 47 48 48 48 48 47 46 47 47 46 46 46 47 47 47 47 47 47 47 47 47 48 48 49 49 49 48 48 48 48 47 47
47 46 46 46 47 47 48 49 49 49 49 48 47 47 47 47 47 48 48 48 49 48 48 48 48 48 49 49 49 50 50 50 50 50 49 48 48 48
47 46 46 47 48 48 49 49 49 49 49 49 48 47 47 48 49 49 49 49 49 49 50 49 49 50 50 50 50 50 49 49 50 50 49 48 48 48
48 47 47 47 48 48 49 49 49 49 49 49 48 48 48 48 49 49 50 50 49 50 50 51 51 51 50 50 49 49 48 48 48 49 49 49 49 49
48 48 48 47 48 49 48 48 48 49 49 49 49 49 49 49 49 49 50 50 49 49 50 50 51 51 51 50 49 49 48 47 47 48 48 49 49 49
47 47 47 47 48 48 48 47 47 48 48 49 49 48 49 49 49 49 49 50 49 50 50 49 49 49 49 49 49 48 48 47 47 48 47 48 48 48
47 46 46 46 46 46 46 46 46 46 47 47 48 48 48 48 48 48 48 48 49 49 48 48 48 48 48 48 48 48 48 48 48 48 48 47 47 47
45 45 45 45 45 45 45 45 44 45 45 46 46 46 46 46 46 46 47 47 47 47 47 48 48 48 47 47 47 47 48 49 49 49 48 47 47 47
45 45 45 45 45 45 45 45 44 45 45 45 45 45 44 45 45 46 47 48 48 47 46 47 47 48 47 47 47 47 48 48 49 49 48 47 47 46
44 44 45 45 45 45 44 44 44 45 44 44 44 44 44 44 45 46 47 47 47 47 47 47 47 47 47 47 46 47 47 48 47 47 46 46 46 45
42 43 44 44 44 44 43 43 43 43 44 43 43 43 44 45 45 45 46 46 46 46 47 47 47 47 47 47 47 46 46 46 46 45 45 45 45 45
41 42 42 43 43 42 42 42 42 42 42 42 43 43 43 44 44 44 45 45 45 45 45 46 46 46 46 46 45 45 45 44 44 44 44 44 44 44
41 41 41 41 41 40 40 40 41 42 42 43 43 43 43 43 43 44 43 43 43 43 44 44 44 44 43 44 44 44 44 44 43 43 43 43 43 43
39 39 39 39 39 39 39 39 40 40 41 41 41 42 41 42 42 42 42 42 42 42 41 42 42 42 41 42 42 43 43 43 42 42 42 41 41 41
37 37 37 37 37 37 37 38 39 39 40 39 40 40 39 40 40 40 40 41 41 40 40 40 40 41 41 40 41 41 41 41 41 40 40 39 38 38
34 34 34 34 34 35 36 36 36 37 38 38 38 38 38 39 39 39 39 39 39 38 38 39 39 39 39 39 38 39 39 39 39 38 38 38 37 37
33 33 32 32 33 33 34 34 34 35 35 36 37 37 38 38 37 37 38 37 37 36 36 36 37 36 36 36 36 36 37 37 37 36 36 36 36 35
32 32 32 32 32 32 32 32 33 33 34 34 35 35 36 36 36 35 35 35 35 34 34 34 34 35 34 34 34 34 35 35 35 35 34 34 33 33
31 31 31 31 31 31 32 32 32 32 32 33 33 34 34 33 33 33 33 32 32 33 33 33 33 33 33 32 32 33 33 33 33 32 31 31 30 29
30 31 31 31 31 31 31 31 31 32 32 33 33 33 32 31 31 30 30 30 30 30 30 31 31 31 31 31 31 31 31 30 29 28 28 28 27 26
Wind_Direction
270 269 270 270 270 270 270 270 271 271 271 271 270 270 270 269 268 268 269 269 270 270 271 271 272 272 272 273 274 275 276 277 277 277 277 277 278 277
271 270 270 270 271 272 271 270 271 271 270 269 270 270 270 269 268 268 268 269 270 271 272 272 272 271 272 273 274 275 276 277 277 277 277 277 278 278
270 271 271 271 271 271 272 272 272 273 272 271 270 269 269 269 268 268 268 268 269 270 271 271 272 272 272 273 274 275 276 277 277 277 277 277 277 277
270 271 271 271 272 273 274 273 273 273 273 272 271 270 269 268 268 269 269 269 269 269 270 271 271 272 273 274 275 276 275 276 277 278 278 277 277 276
271 270 270 270 272 273 274 274 273 272 272 271 270 270 269 269 268 269 269 269 270 270 270 271 272 273 274 275 276 276 276 277 277 278 278 277 276 276
269 270 270 271 272 273 273 274 273 272 271 270 270 269 269 269 269 269 270 270 271 271 272 273 274 275 275 275 276 276 277 277 277 276 276 276 276 275
268 269 270 272 272 273 273 272 272 271 270 270 270 270 270 269 270 270 271 271 271 271 273 274 275 275 276 276 277 277 276 276 275 275 275 276 275 274
268 269 270 271 272 272 272 272 271 270 269 269 269 269 269 269 269 270 270 270 271 272 273 274 274 275 276 276 276 276 276 275 275 275 276 276 274 273
268 269 270 271 271 270 270 270 270 270 269 270 270 270 270 270 270 270 270 271 272 272 272 273 274 275 275 275 275 275 275 275 275 275 274 274 273 272
267 268 269 270 270 270 270 270 270 270 270 270 271 271 271 270 270 270 270 271 272 272 272 273 273 274 275 275 275 276 276 276 277 277 275 273 271 271
268 269 269 270 270 270 270 269 269 269 270 270 271 271 271 270 270 270 270 271 271 272 272 273 273 274 274 275 275 276 277 277 277 277 275 274 271 270
268 268 269 269 270 270 270 269 268 268 269 269 270 270 269 269 270 270 271 272 272 271 272 273 273 273 273 274 275 276 277 277 277 277 275 273 272 270
268 268 268 268 269 269 269 269 268 268 268 268 270 270 270 271 271 271 273 273 273 273 273 273 273 273 273 273 274 276 278 277 277 277 275 274 273 273
269 270 269 269 269 269 269 269 269 268 268 268 270 271 272 272 273 274 274 274 274 274 274 273 273 273 273 274 275 277 278 277 277 276 275 275 275 274
269 270 270 269 269 269 269 269 269 269 268 269 270 271 272 273 273 274 274 275 275 275 275 275 273 273 274 275 276 277 277 277 277 276 275 276 275 275
269 270 270 270 269 269 268 269 269 269 269 270 271 272 273 274 274 275 275 275 276 276 276 275 274 274 275 275 276 278 277 276 277 277 276 276 275 275
270 270 271 271 270 270 269 269 269 269 269 270 271 272 273 273 274 274 275 276 277 276 275 275 275 275 276 277 278 278 278 277 277 277 276 275 276 276
271 272 272 272 271 271 270 270 271 270 270 271 271 272 272 273 274 274 275 276 276 275 273 273 274 275 276 277 278 278 277 277 277 277 276 275 275 275
273 273 273 273 272 271 271 271 271 272 272 272 272 273 274 274 274 275 275 276 276 275 274 274 274 275 276 276 277 277 277 276 276 277 276 275 274 273
273 273 273 273 274 274 273 273 273 274 274 274 274 275 276 276 276 276 276 276 276 275 275 275 275 275 277 277 277 277 278 278 277 277 276 274 273 273
272 273 273 273 274 275 275 274 275 276 276 276 276 277 278 277 277 277 277 277 276 276 277 276 275 275 276 277 277 277 277 278 278 278 276 274 274 273
272 272 272 273 275 275 275 275 276 277 277 277 277 278 278 277 277 277 278 277 277 277 277 276 276 276 276 277 277 277 277 277 278 278 276 275 274 273
272 272 272 274 275 275 275 275 276 277 278 279 279 279 277 276 277 277 278 277 277 278 277 276 276 276 277 277 277 278 278 278 277 276 276 276 275 273
Height
5684 5683 5683 5682 5680 5680 5679 5678 5678 5678 5678 5677 5676 5675 5675 5674 5674 5674 5674 5674 5673 5673 5673 5673 5672 5672 5671 5671 5670 5670 5669 5668 5667 5666 5665 5664 5663 5662
5672 5671 5671 5670 5669 5668 5667 5666 5665 5665 5665 5665 5664 5663 5662 5661 5661 5661 5662 5662 5661 5661 5660 5660 5659 5659 5658 5658 5657 5657 5656 5655 5654 5653 5652 5651 5650 5649
5660 5659 5658 5657 5656 5655 5654 5654 5653 5652 5652 5652 5651 5650 5649 5649 5648 5648 5648 5648 5648 5648 5647 5647 5646 5646 5645 5644 5644 5643 5643 5641 5640 5639 5638 5638 5637 5636
5647 5646 5646 5645 5644 5643 5642 5641 5640 5638 5638 5638 5638 5637 5636 5636 5635 5635 5635 5635 5635 5635 5634 5634 5633 5633 5632 5631 5630 5629 5628 5627 5626 5626 5625 5624 5623 5622
5634 5633 5633 5632 5631 5630 5629 5627 5626 5625 5624 5624 5624 5624 5623 5622 5622 5622 5622 5622 5621 5621 5621 5620 5620 5619 5618 5617 5616 5615 5614 5613 5612 5611 5610 5609 5608 5607
5620 5620 5619 5618 5617 5616 5615 5614 5612 5611 5610 5610 5610 5610 5610 5609 5609 5609 5609 5609 5608 5608 5607 5607 5606 5605 5604 5603 5602 5601 5599 5598 5597 5596 5595 5595 5594 5593
5607 5606 5605 5604 5603 5602 5601 5599 5598 5597 5596 5596 5596 5596 5596 5595 5595 5595 5595 5595 5595 5594 5593 5593 5592 5591 5589 5588 5587 5586 5584 5583 5582 5581 5580 5580 5579 5579
5593 5592 5591 5590 5589 5587 5586 5585 5584 5583 5582 5582 5582 5582 5582 5581 5581 5581 5581 5581 5582 5582 5580 5579 5577 5576 5575 5574 5572 5571 5570 5569 5568 5567 5566 5565 5565 5564
5579 5578 5577 5576 5575 5573 5572 5571 5570 5569 5568 5568 5568 5568 5567 5567 5567 5567 5566 5566 5567 5566 5565 5565 5563 5562 5560 5559 5558 5557 5556 5555 5554 5553 5551 5551 5550 5550
5564 5564 5563 5562 5561 5560 5559 5558 5557 5556 5555 5555 5554 5554 5553 5552 5552 5552 5552 5552 5552 5551 5550 5550 5549 5548 5547 5545 5544 5543 5542 5541 5540 5539 5537 5536 5535 5535
5551 5551 5550 5549 5548 5547 5546 5545 5544 5543 5541 5541 5541 5540 5539 5539 5538 5538 5538 5538 5538 5537 5536 5535 5535 5534 5533 5532 5530 5529 5527 5526 5525 5524 5523 5521 5521 5521
5538 5538 5537 5536 5535 5533 5533 5532 5532 5531 5529 5528 5528 5527 5527 5526 5525 5525 5524 5524 5523 5524 5522 5521 5520 5519 5519 5519 5517 5515 5513 5512 5510 5509 5508 5507 5506 5506
5525 5524 5524 5523 5522 5520 5520 5519 5519 5518 5517 5516 5515 5515 5514 5513 5513 5512 5511 5510 5509 5509 5508 5507 5506 5505 5504 5505 5504 5502 5499 5498 5496 5495 5494 5493 5492 5492
5512 5512 5511 5510 5509 5508 5507 5506 5506 5505 5504 5504 5503 5503 5502 5501 5500 5499 5498 5496 5496 5495 5494 5493 5492 5491 5490 5490 5490 5489 5486 5484 5483 5482 5481 5480 5479 5478
5499 5499 5498 5497 5496 5495 5495 5494 5493 5492 5492 5492 5491 5491 5489 5488 5487 5486 5485 5484 5483 5481 5480 5479 5478 5477 5477 5476 5476 5475 5474 5472 5470 5469 5468 5467 5466 5465
5487 5486 5485 5484 5484 5483 5483 5482 5481 5480 5480 5479 5479 5478 5477 5476 5475 5474 5473 5471 5470 5469 5467 5465 5464 5464 5463 5463 5462 5462 5460 5459 5458 5456 5455 5454 5453 5452
5474 5474 5473 5473 5472 5471 5471 5470 5469 5468 5468 5467 5466 5466 5465 5464 5462 5461 5460 5459 5458 5457 5455 5453 5452 5451 5451 5450 5450 5448 5447 5446 5445 5444 5443 5442 5441 5440
5463 5463 5462 5461 5461 5460 5459 5458 5457 5456 5455 5455 5454 5453 5452 5451 5450 5449 5448 5446 5445 5444 5443 5441 5440 5439 5439 5438 5437 5436 5434 5433 5432 5431 5430 5430 5430 5428
5452 5452 5451 5450 5450 5449 5448 5447 5446 5445 5443 5443 5442 5441 5440 5439 5438 5437 5436 5434 5433 5432 5431 5430 5429 5428 5427 5427 5425 5423 5422 5421 5420 5420 5419 5418 5418 5417
5441 5441 5440 5440 5439 5438 5437 5436 5435 5434 5432 5432 5431 5430 5429 5428 5427 5425 5424 5423 5422 5421 5420 5419 5418 5417 5416 5416 5415 5413 5410 5409 5409 5408 5407 5406 5406 5405
5431 5431 5430 5429 5428 5427 5426 5425 5424 5423 5422 5421 5420 5419 5417 5416 5415 5414 5413 5412 5411 5410 5409 5408 5407 5406 5405 5405 5404 5403 5400 5398 5397 5397 5396 5395 5395 5395
5421 5420 5420 5419 5418 5417 5416 5415 5414 5413 5412 5410 5409 5408 5407 5406 5405 5404 5403 5402 5401 5400 5399 5398 5397 5396 5395 5394 5394 5392 5391 5389 5387 5386 5385 5385 5384 5385
5410 5410 5409 5409 5408 5407 5406 5405 5404 5403 5402 5400 5399 5398 5397 5396 5395 5394 5393 5392 5391 5390 5389 5388 5387 5386 5385 5384 5383 5382 5381 5379 5378 5377 5376 5375 5375 5375